CW4279 Weather Reports


time (UTC)temp
F
wind
direction
speed
knots
gust
knots
rain 1hr
in
rain 24hr
in
rain mn
in
humidity
%
barometer
mb
20260906173759 82 152 1.7 1.7 0.00 0.00 0.00 64 1050.9
20260906173255 81 172 0.9 2.6 0.00 0.00 0.00 67 1050.9
20260906172753 81 139 0.9 1.7 0.00 0.00 0.00 68 1051.0
20260906172250 82 152 0.9 1.7 0.00 0.00 0.00 68 1050.8
20260906171744 81 169 0.9 2.6 0.00 0.00 0.00 67 1050.8
20260906171239 82 168 1.7 4.3 0.00 0.00 0.00 67 1050.8
20260906170735 81 164 2.6 2.6 0.00 0.00 0.00 69 1051.0
20260906170231 81 171 1.7 2.6 0.00 0.00 0.00 68 1051.1
20260906165727 81 156 0.9 2.6 0.00 0.00 0.00 71 1051.1
20260906165221 80 165 1.7 1.7 0.00 0.00 0.00 71 1051.0
20260906164721 80 160 1.7 1.7 0.00 0.00 0.00 71 1051.3
20260906164216 80 140 2.6 2.6 0.00 0.00 0.00 70 1051.0
20260906163712 80 165 0.9 4.3 0.00 0.00 0.00 71 1051.4
20260906163208 80 159 2.6 4.3 0.00 0.00 0.00 69 1051.3
20260906162704 80 168 1.7 1.7 0.00 0.00 0.00 72 1051.4
20260906162204 79 158 2.6 2.6 0.00 0.00 0.00 74 1051.6
20260906161659 78 160 1.7 2.6 0.00 0.00 0.00 74 1051.8
20260906161158 78 160 1.7 2.6 0.00 0.00 0.00 74 1051.8
20260906160657 78 150 1.7 2.6 0.00 0.00 0.00 74 1051.9
20260906160156 78 159 0.9 1.7 0.00 0.00 0.00 74 1051.7
20260906155654 78 167 1.7 2.6 0.00 0.00 0.00 74 1051.8
20260906155150 78 159 0.9 2.6 0.00 0.00 0.00 75 1051.9
20260906154645 78 173 1.7 1.7 0.00 0.00 0.00 76 1051.8
20260906154144 78 165 0.9 2.6 0.00 0.00 0.00 76 1051.7
20260906153643 78 158 0.9 1.7 0.00 0.00 0.00 77 1051.7
20260906153138 77 158 1.7 2.6 0.00 0.00 0.00 77 1051.5
20260906152632 77 139 0.9 1.7 0.00 0.00 0.00 79 1051.7
20260906152127 76 166 0.9 1.7 0.00 0.00 0.00 80 1051.8
20260906151621 76 149 0.9 1.7 0.00 0.00 0.00 80 1051.6
20260906151118 76 157 1.7 1.7 0.00 0.00 0.00 80 1051.7
20260906150613 76 150 0.9 1.7 0.00 0.00 0.00 79 1051.8
20260906150108 76 156 1.7 1.7 0.00 0.00 0.00 81 1051.7
20260906145607 75 145 1.7 2.6 0.00 0.00 0.00 82 1051.6
20260906145102 74 166 1.7 1.7 0.00 0.00 0.00 83 1051.1
20260906144556 74 152 1.7 2.6 0.00 0.00 0.00 84 1051.2
20260906144052 74 151 2.6 4.3 0.00 0.00 0.00 83 1051.5
20260906143546 74 172 2.6 4.3 0.00 0.00 0.00 85 1051.4
20260906143044 73 152 1.7 1.7 0.00 0.00 0.00 86 1051.3
20260906142542 73 149 2.6 2.6 0.00 0.00 0.00 86 1051.2
20260906142038 73 174 1.7 1.7 0.00 0.00 0.00 88 1051.0
20260906141537 72 155 0.9 2.6 0.00 0.00 0.00 88 1051.3
20260906141033 72 146 0.9 1.7 0.00 0.00 0.00 90 1051.2
20260906140532 71 150 0.0 0.9 0.00 0.00 0.00 92 1051.3
20260906140031 70 157 0.0 0.9 0.00 0.00 0.00 93 1051.6
20260906135528 70 145 0.9 0.9 0.00 0.00 0.00 93 1051.5
20260906135024 69 147 1.7 1.7 0.00 0.00 0.00 95 1051.2
20260906134519 69 155 1.7 1.7 0.00 0.00 0.00 95 1051.4
20260906134014 68 163 0.0 1.7 0.00 0.00 0.00 96 1051.3
20260906133510 68 149 0.9 0.9 0.00 0.00 0.00 97 1051.5
20260906133006 68 151 0.0 1.7 0.00 0.00 0.00 97 1051.3
20260906132501 68 157 0.9 0.9 0.00 0.00 0.00 97 1051.5
20260906131955 68 148 0.9 0.9 0.00 0.00 0.00 97 1051.6
20260906131451 67 162 0.9 1.7 0.00 0.00 0.00 98 1051.3
20260906130947 67 159 0.0 0.9 0.00 0.00 0.00 98 1051.2
20260906130446 66 159 0.0 0.9 0.00 0.00 0.00 98 1051.2
20260906125940 67 138 0.0 0.0 0.00 0.00 0.00 98 1051.2
20260906125438 67 152 0.0 0.9 0.00 0.00 0.00 98 1051.2
20260906124937 66 156 0.0 1.7 0.00 0.00 0.00 98 1051.1
20260906124434 66 152 0.0 0.9 0.00 0.00 0.00 99 1051.2
20260906123933 66 166 0.9 0.9 0.00 0.00 0.00 99 1051.1
20260906123433 66 152 0.9 1.7 0.00 0.00 0.00 99 1051.3
20260906122927 66 154 0.9 2.6 0.00 0.00 0.00 99 1050.9
20260906122422 66 154 0.0 1.7 0.00 0.00 0.00 99 1050.9
20260906121919 66 162 0.9 1.7 0.00 0.00 0.00 99 1051.0
20260906121415 65 151 0.9 2.6 0.00 0.00 0.00 99 1050.9
20260906120911 64 160 0.0 0.9 0.00 0.00 0.00 99 1051.1
20260906120406 64 140 0.0 0.0 0.00 0.00 0.00 99 1051.0
20260906115902 64 153 0.0 0.9 0.00 0.00 0.00 99 1050.9
20260906115358 64 149 0.0 0.0 0.00 0.00 0.00 99 1051.0
20260906114856 63 155 0.0 0.0 0.00 0.00 0.00 99 1050.9
20260906114352 64 156 0.0 0.0 0.00 0.00 0.00 99 1050.9
20260906113847 63 175 0.0 0.9 0.00 0.00 0.00 99 1050.8
20260906113346 63 155 0.0 0.0 0.00 0.00 0.00 99 1050.8
20260906112842 63 156 0.0 0.0 0.00 0.00 0.00 99 1050.6
20260906112337 63 154 0.0 0.0 0.00 0.00 0.00 99 1051.0
20260906111832 63 129 0.0 0.0 0.00 0.00 0.00 99 1050.9
20260906111332 63 155 0.0 0.0 0.00 0.00 0.00 99 1050.6
20260906110827 63 155 0.0 0.0 0.00 0.00 0.00 99 1050.5
20260906110323 64 153 0.0 0.0 0.00 0.00 0.00 99 1050.6
20260906105821 65 153 0.0 0.0 0.00 0.00 0.00 99 1050.4
20260906105317 66 155 0.0 0.9 0.00 0.00 0.00 99 1050.6
20260906104813 66 151 0.0 0.9 0.00 0.00 0.00 99 1050.2
20260906104311 66 152 0.0 0.9 0.00 0.00 0.00 99 1050.3
20260906103809 66 157 0.9 0.9 0.00 0.00 0.00 99 1050.2
20260906103303 65 151 0.9 0.9 0.00 0.00 0.00 99 1050.3
20260906102759 65 152 0.0 0.9 0.00 0.00 0.00 99 1050.4
20260906102258 65 153 0.0 0.9 0.00 0.00 0.00 99 1050.4
20260906101754 63 153 0.0 0.9 0.00 0.00 0.00 99 1050.0
20260906101248 63 153 0.0 0.0 0.00 0.00 0.00 99 1050.1
20260906100744 63 149 0.0 0.0 0.00 0.00 0.00 99 1050.0
20260906100243 63 137 0.0 0.0 0.00 0.00 0.00 99 1049.8
20260906095738 63 148 0.0 0.0 0.00 0.00 0.00 99 1049.9
20260906095233 63 148 0.0 0.0 0.00 0.00 0.00 99 1049.6
20260906094732 64 160 0.0 0.9 0.00 0.00 0.00 99 1049.8
20260906094222 63 153 0.0 0.0 0.00 0.00 0.00 99 1049.7
20260906093718 64 130 0.0 0.0 0.00 0.00 0.00 99 1049.8
20260906093214 64 130 0.0 0.9 0.00 0.00 0.00 99 1049.8
20260906092709 64 130 0.0 0.0 0.00 0.00 0.00 99 1049.9
20260906092208 64 130 0.0 0.0 0.00 0.00 0.00 99 1049.8
20260906091705 64 130 0.0 0.0 0.00 0.00 0.00 99 1049.9
20260906091201 64 130 0.0 0.0 0.00 0.00 0.00 99 1050.2
20260906090657 64 130 0.0 0.9 0.00 0.00 0.00 99 1050.3
20260906090155 64 130 0.0 0.9 0.00 0.00 0.00 99 1050.0
20260906085655 64 149 0.0 0.0 0.00 0.00 0.00 99 1050.2
20260906085149 64 134 0.0 0.0 0.00 0.00 0.00 99 1049.8
20260906084643 64 138 0.0 0.0 0.00 0.00 0.00 99 1049.9
20260906084143 65 148 0.0 0.0 0.00 0.00 0.00 99 1049.8
20260906083638 64 154 0.0 0.0 0.00 0.00 0.00 99 1049.9
20260906083133 64 127 0.0 0.0 0.00 0.00 0.00 99 1049.8
20260906082629 64 125 0.0 0.0 0.00 0.00 0.00 99 1050.0
20260906082124 64 136 0.0 0.9 0.00 0.00 0.00 99 1049.8
20260906081620 65 149 0.0 0.9 0.00 0.00 0.00 99 1049.8
20260906081115 65 105 0.0 1.7 0.00 0.00 0.00 99 1049.5
20260906080611 65 127 0.0 0.9 0.00 0.00 0.00 99 1049.7
20260906080107 65 93 0.9 1.7 0.00 0.00 0.00 99 1049.8
20260906075601 65 126 0.0 0.0 0.00 0.00 0.00 99 1049.6
20260906075055 65 126 0.0 0.0 0.00 0.00 0.00 99 1049.4
20260906074551 65 126 0.0 0.0 0.00 0.00 0.00 99 1049.4
20260906074049 65 126 0.0 0.0 0.00 0.00 0.00 99 1049.5
20260906073544 65 126 0.0 0.0 0.00 0.00 0.00 99 1049.6
20260906073040 65 126 0.0 0.0 0.00 0.00 0.00 99 1049.6
20260906072535 65 126 0.0 0.0 0.00 0.00 0.00 99 1049.7
20260906072031 65 126 0.0 0.0 0.00 0.00 0.00 99 1050.0
20260906071527 65 126 0.0 0.0 0.00 0.00 0.00 99 1050.0
20260906071022 65 126 0.0 0.0 0.00 0.00 0.00 99 1050.0
20260906070519 65 126 0.0 0.0 0.00 0.00 0.00 99 1050.1
20260906070014 65 126 0.0 0.0 0.00 0.00 0.00 99 1050.1
20260906065513 65 126 0.0 0.0 0.00 0.00 0.00 99 1050.0
20260906065009 65 126 0.0 0.0 0.00 0.00 0.00 99 1050.2
20260906064505 65 126 0.0 0.0 0.00 0.00 0.00 99 1050.2
20260906064000 65 126 0.0 0.0 0.00 0.00 0.00 99 1050.1
20260906063456 65 126 0.0 0.0 0.00 0.00 0.00 99 1050.4
20260906062955 66 126 0.0 0.0 0.00 0.00 0.00 99 1050.2
20260906062450 66 126 0.0 0.0 0.00 0.00 0.00 99 1050.3
20260906061945 66 127 0.0 0.0 0.00 0.00 0.00 99 1050.1
20260906061441 66 127 0.0 0.0 0.00 0.00 0.00 99 1050.0
20260906060936 66 122 0.0 0.0 0.00 0.00 0.00 99 1050.0
20260906060433 66 145 0.0 0.0 0.00 0.00 0.00 99 1050.0
20260906055929 66 151 0.0 0.0 0.00 0.00 0.00 98 1050.1
20260906055425 66 139 0.0 0.9 0.00 0.00 0.00 98 1050.0
20260906054920 66 139 0.0 0.0 0.00 0.00 0.00 98 1050.0
20260906054415 67 139 0.0 0.0 0.00 0.00 0.00 98 1050.1
20260906053911 67 139 0.0 0.0 0.00 0.00 0.00 98 1050.0
20260906053406 67 140 0.0 0.0 0.00 0.00 0.00 97 1050.2
20260906052902 68 140 0.0 0.0 0.00 0.00 0.00 97 1050.2
20260906052358 68 140 0.0 0.9 0.00 0.00 0.00 97 1050.1
20260906051855 68 127 0.0 0.0 0.00 0.00 0.00 97 1050.1
20260906051354 68 116 0.0 0.0 0.00 0.00 0.00 97 1050.0
20260906050850 68 128 0.0 0.0 0.00 0.00 0.00 97 1050.0
20260906050345 68 128 0.0 0.9 0.00 0.00 0.00 97 1050.0
20260906045844 68 129 0.0 0.0 0.00 0.00 0.00 97 1050.2
20260906045338 68 131 0.0 0.9 0.00 0.00 0.00 97 1050.2
20260906044834 68 118 0.0 0.9 0.00 0.00 0.00 97 1050.1
20260906044329 68 113 0.0 0.9 0.00 0.00 0.00 97 1049.9
20260906043826 68 125 0.0 0.9 0.00 0.00 0.00 97 1050.1
20260906043321 68 111 0.0 0.9 0.00 0.00 0.00 96 1050.1
20260906042820 68 110 0.9 0.9 0.00 0.00 0.00 96 1050.4
20260906042319 68 110 0.9 0.9 0.00 0.00 0.00 96 1050.3
20260906041815 68 135 0.0 0.0 0.00 0.00 0.00 96 1050.3
20260906041310 68 135 0.0 0.0 0.00 0.00 0.00 95 1050.0
20260906040805 68 135 0.0 0.0 0.00 0.00 0.00 95 1050.1
20260906040301 69 135 0.0 0.0 0.00 0.00 0.00 95 1049.9
20260906035756 69 135 0.0 0.0 0.00 0.00 0.00 94 1050.1
20260906035251 69 134 0.0 0.0 0.00 0.00 0.00 94 1049.9
20260906034746 69 169 0.0 0.0 0.00 0.00 0.00 94 1049.9
20260906034241 69 169 0.0 0.0 0.00 0.00 0.00 93 1049.9
20260906033737 69 169 0.0 0.0 0.00 0.00 0.00 92 1050.0
20260906033236 69 169 0.0 0.0 0.00 0.00 0.00 92 1050.1
20260906032733 70 170 0.9 0.9 0.00 0.00 0.00 92 1050.1
20260906032232 70 161 0.9 0.9 0.00 0.00 0.00 92 1050.1
20260906031728 70 163 0.0 0.9 0.00 0.00 0.00 92 1049.9
20260906031224 70 160 0.0 0.0 0.00 0.00 0.00 93 1050.1
20260906030723 69 157 0.0 0.0 0.00 0.00 0.00 93 1050.0
20260906030218 69 155 0.0 0.0 0.00 0.00 0.00 94 1050.2
20260906025717 69 153 0.0 0.0 0.00 0.00 0.00 94 1050.1
20260906025212 69 152 0.0 0.9 0.00 0.00 0.00 95 1050.1
20260906024711 69 129 0.0 0.0 0.00 0.00 0.00 95 1050.2
20260906024210 69 129 0.0 0.0 0.00 0.00 0.00 95 1050.3
20260906023706 69 126 0.0 0.0 0.00 0.00 0.00 95 1050.2
20260906023201 69 126 0.0 0.0 0.00 0.00 0.00 95 1050.0
20260906022656 69 126 0.0 0.0 0.00 0.00 0.00 95 1050.1
20260906022152 69 126 0.0 0.0 0.00 0.00 0.00 94 1050.1
20260906021648 69 126 0.0 0.0 0.00 0.00 0.00 94 1049.9
20260906021146 69 126 0.0 0.0 0.00 0.00 0.00 94 1050.0
20260906020641 70 113 0.0 0.0 0.00 0.00 0.00 93 1050.1
20260906020136 70 126 0.0 0.0 0.00 0.00 0.00 93 1049.7
20260906015630 70 126 0.0 0.0 0.00 0.00 0.00 92 1049.6
20260906015128 71 129 0.0 0.0 0.00 0.00 0.00 92 1049.7
20260906014623 71 130 0.0 0.9 0.00 0.00 0.00 91 1049.2
20260906014119 71 126 0.0 0.0 0.00 0.00 0.00 90 1049.1
20260906013614 72 126 0.0 0.0 0.00 0.00 0.00 90 1049.0
20260906013110 72 131 0.0 0.0 0.00 0.00 0.00 88 1048.7
20260906012605 72 130 0.0 0.0 0.00 0.00 0.00 88 1048.1
20260906012105 73 122 0.0 0.0 0.00 0.00 0.00 87 1048.1
20260906011601 73 130 0.0 0.0 0.00 0.00 0.00 86 1047.7
20260906011055 73 132 0.0 0.9 0.00 0.00 0.00 86 1047.8
20260906010550 74 131 0.0 0.9 0.00 0.00 0.00 85 1047.8
20260906010047 74 103 0.9 0.9 0.00 0.00 0.00 84 1047.5
20260906005546 74 145 0.0 0.9 0.00 0.00 0.00 83 1047.6
20260906005045 75 147 0.0 0.0 0.00 0.00 0.00 82 1047.8
20260906004544 76 146 0.0 0.9 0.00 0.00 0.00 81 1047.3
20260906004039 76 148 0.0 0.0 0.00 0.00 0.00 80 1047.4
20260906003534 77 154 0.0 0.9 0.00 0.00 0.00 79 1047.0
20260906003031 77 147 0.0 1.7 0.00 0.00 0.00 78 1047.2
20260906002525 77 144 0.0 1.7 0.00 0.00 0.00 78 1047.0
20260906002020 77 70 1.7 1.7 0.00 0.00 0.00 77 1046.9
20260906001515 78 149 0.0 1.7 0.00 0.00 0.00 77 1046.9
20260906001009 78 129 0.9 1.7 0.00 0.00 0.00 76 1047.0
20260906000506 78 135 0.0 1.7 0.00 0.00 0.00 75 1047.2
20260906000006 79 113 0.0 1.7 0.00 0.00 0.00 74 1047.1
20260905235500 79 66 2.6 4.3 0.00 0.00 0.00 73 1046.8
20260905234955 79 112 0.9 0.9 0.00 0.00 0.00 73 1046.8
20260905234450 79 126 0.9 1.7 0.00 0.00 0.00 72 1047.1
20260905233944 79 70 2.6 4.3 0.00 0.00 0.00 72 1047.3
20260905233440 80 155 0.9 0.9 0.00 0.00 0.00 72 1047.5
20260905232939 80 159 0.0 0.9 0.00 0.00 0.00 72 1047.3
20260905232435 80 52 0.9 1.7 0.00 0.00 0.00 71 1047.5
20260905231930 81 142 0.0 0.9 0.00 0.00 0.00 69 1047.3
20260905231426 81 155 2.6 4.3 0.00 0.00 0.00 69 1047.4
20260905230917 82 81 1.7 1.7 0.00 0.00 0.00 69 1047.6
20260905230414 82 146 0.0 2.6 0.00 0.00 0.00 70 1047.6
20260905225908 82 71 0.9 1.7 0.00 0.00 0.00 69 1047.8
20260905225403 82 158 0.0 1.7 0.00 0.00 0.00 70 1047.8
20260905224858 82 48 2.6 2.6 0.00 0.00 0.00 68 1047.8
20260905224353 82 144 0.0 0.9 0.00 0.00 0.00 69 1048.1
20260905223847 82 149 0.0 1.7 0.00 0.00 0.00 69 1047.7
20260905223346 82 141 1.7 1.7 0.00 0.00 0.00 68 1047.7
20260905222840 82 149 0.0 2.6 0.00 0.00 0.00 69 1047.8
20260905222339 82 117 1.7 1.7 0.00 0.00 0.00 69 1047.8
20260905221835 82 67 3.5 4.3 0.00 0.00 0.00 69 1047.9
20260905221332 83 79 2.6 2.6 0.00 0.00 0.00 67 1047.9
20260905220827 83 122 0.0 0.9 0.00 0.00 0.00 68 1047.8
20260905220323 83 148 0.9 1.7 0.00 0.00 0.00 69 1048.0
20260905215822 82 159 0.9 4.3 0.00 0.00 0.00 70 1047.6
20260905215318 83 96 1.7 1.7 0.00 0.00 0.00 69 1047.7
20260905214815 81 151 0.9 1.7 0.00 0.00 0.00 71 1047.9
20260905214310 82 180 0.9 2.6 0.00 0.00 0.00 70 1048.0
20260905213804 83 330 0.9 2.6 0.00 0.00 0.00 71 1048.0
20260905213300 83 215 1.7 4.3 0.00 0.00 0.00 70 1048.0
20260905212755 82 118 1.7 1.7 0.00 0.00 0.00 71 1048.2
20260905212254 81 136 2.6 5.2 0.00 0.00 0.00 72 1048.5
20260905211749 82 163 0.0 0.9 0.00 0.00 0.00 69 1048.6
20260905211244 81 135 0.9 1.7 0.00 0.00 0.00 73 1048.5
20260905210740 82 137 0.9 1.7 0.00 0.00 0.00 72 1048.7
20260905210235 82 164 0.9 2.6 0.00 0.00 0.00 72 1048.7
20260905205734 82 157 0.9 1.7 0.00 0.00 0.00 70 1048.9
20260905205229 81 111 0.9 2.6 0.00 0.00 0.00 73 1049.2
20260905204728 81 156 0.9 0.9 0.00 0.00 0.00 73 1048.9
20260905204224 81 163 0.9 1.7 0.00 0.00 0.00 73 1049.2
20260905203723 81 113 0.9 0.9 0.00 0.00 0.00 74 1049.1
20260905203219 81 85 1.7 2.6 0.00 0.00 0.00 73 1049.2
20260905202714 81 158 0.0 0.9 0.00 0.00 0.00 73 1049.2
20260905202209 81 270 1.7 1.7 0.00 0.00 0.00 73 1049.5
20260905201704 81 136 0.0 0.9 0.00 0.00 0.00 74 1049.6
20260905201159 80 109 0.9 2.6 0.00 0.00 0.00 74 1049.6
20260905200654 81 179 1.7 2.6 0.00 0.00 0.00 72 1049.6
20260905200149 79 134 0.9 2.6 0.00 0.00 0.00 75 1049.8
20260905195647 80 86 2.6 4.3 0.00 0.00 0.00 76 1049.8
20260905195142 82 50 2.6 2.6 0.00 0.00 0.00 71 1049.6
20260905194637 80 115 0.9 2.6 0.00 0.00 0.00 75 1049.7
20260905194132 80 80 0.9 1.7 0.00 0.00 0.00 75 1049.7
20260905193627 79 134 0.0 1.7 0.00 0.00 0.00 76 1049.8
20260905193121 80 143 0.9 1.7 0.00 0.00 0.00 75 1049.6
20260905192617 80 49 1.7 2.6 0.00 0.00 0.00 74 1049.5
20260905192113 80 106 0.9 1.7 0.00 0.00 0.00 77 1049.7
20260905191612 79 118 0.0 0.9 0.00 0.00 0.00 76 1049.8
20260905191111 78 183 0.9 0.9 0.00 0.00 0.00 79 1049.8
20260905190609 78 141 0.9 1.7 0.00 0.00 0.00 79 1049.8
20260905190108 78 132 0.0 2.6 0.00 0.00 0.00 79 1049.6
20260905185607 77 104 0.9 1.7 0.00 0.00 0.00 79 1049.7
20260905185102 77 155 0.9 2.6 0.00 0.00 0.00 80 1049.6
20260905184557 76 137 0.0 0.9 0.00 0.00 0.00 82 1049.9
20260905184055 77 43 1.7 2.6 0.00 0.00 0.00 80 1049.9
20260905183554 77 80 0.9 1.7 0.00 0.00 0.00 80 1049.6
20260905183045 76 149 0.0 1.7 0.00 0.00 0.00 82 1049.9
20260905182544 76 355 0.9 1.7 0.00 0.00 0.00 82 1049.6
20260905182038 76 92 2.6 2.6 0.00 0.00 0.00 81 1049.6
20260905181533 77 22 1.7 1.7 0.00 0.00 0.00 81 1049.7
20260905181032 76 107 1.7 4.3 0.00 0.00 0.00 82 1049.8
20260905180527 75 140 0.0 0.9 0.00 0.00 0.00 82 1050.1
20260905180023 74 119 0.0 0.9 0.00 0.00 0.00 85 1050.0
20260905175522 73 100 0.9 1.7 0.00 0.00 0.00 87 1050.0
20260905175018 74 82 0.9 2.6 0.00 0.00 0.00 86 1049.9
20260905174513 74 135 0.9 2.6 0.00 0.00 0.00 85 1050.0
20260905174009 74 24 1.7 6.1 0.00 0.00 0.00 85 1049.8